This is the latest recevied weather packets stored in our database for station/object S59DKS-10. If no packets are shown the sender has not sent any weather packets the latest 10 day(s).
| Time | Temp. | Humidity | Pressure | Rain* | Wind** | Luminosity | Snow |
|---|---|---|---|---|---|---|---|
| 1777570532 | 11.67° C | 31% | 1025.1 hPa | - | - | - | - |
| 1777569633 | 12.22° C | 30% | 1024.8 hPa | - | - | - | - |
| 1777568735 | 12.22° C | 29% | 1024.8 hPa | - | - | - | - |
| 1777567836 | 12.78° C | 29% | 1024.9 hPa | - | - | - | - |
| 1777566937 | 12.78° C | 29% | 1024.8 hPa | - | - | - | - |
| 1777566038 | 13.33° C | 29% | 1024.8 hPa | - | - | - | - |
| 1777565134 | 13.33° C | 28% | 1024.8 hPa | - | - | - | - |
| 1777564235 | 13.89° C | 28% | 1024.7 hPa | - | - | - | - |
| 1777563336 | 13.89° C | 29% | 1024.9 hPa | - | - | - | - |
| 1777562432 | 13.89° C | 29% | 1024.8 hPa | - | - | - | - |
| 1777561533 | 13.89° C | 28% | 1024.8 hPa | - | - | - | - |
| 1777560635 | 13.89° C | 29% | 1025 hPa | - | - | - | - |
| 1777559737 | 13.89° C | 28% | 1024.9 hPa | - | - | - | - |
| 1777558837 | 13.89° C | 28% | 1024.8 hPa | - | - | - | - |
| 1777557937 | 13.89° C | 29% | 1024.9 hPa | - | - | - | - |
| 1777557037 | 13.89° C | 29% | 1025 hPa | - | - | - | - |
| 1777556135 | 13.89° C | 29% | 1025.1 hPa | - | - | - | - |
| 1777555236 | 13.33° C | 29% | 1025.1 hPa | - | - | - | - |
| 1777554336 | 13.33° C | 29% | 1025.4 hPa | - | - | - | - |
| 1777553445 | 13.33° C | 29% | 1025.6 hPa | - | - | - | - |
| 1777552537 | 13.33° C | 29% | 1025.7 hPa | - | - | - | - |
| 1777551638 | 13.33° C | 28% | 1025.4 hPa | - | - | - | - |
| 1777550740 | 12.78° C | 29% | 1026 hPa | - | - | - | - |
| 1777550105 | 12.78° C | 28% | 1025.8 hPa | - | - | - | - |
| 1777549847 | 12.78° C | 28% | 1025.8 hPa | - | - | - | - |
* Rain since midnight (hover to see other rain measurements)
** Current wind speed in m/s (hover to see current wind gust speed)